Flag for U.S.A. Weather past 2 weeks in Milwaukee, Wisconsin, U.S.A.

Now
52 °F

Overcast.


Feels Like: 52 °F
Forecast: 51 / 63 °F
Wind: No wind

Location: Milwaukee / Timmerman

Current Time: Oct 1, 2014 at 4:02:40 AM

Latest Report: Oct 1, 2014 at 3:15 AM


Visibility: 10 mi

Pressure: 30.02 "Hg

Humidity: 82%

Dew point: 46 °F

Location of MilwaukeeLocation

Historic Weather in Milwaukee — Graph

°F

Milwaukee temperature yesterday

Maximum temperature yesterday: 55 °F (at 1:45 PM)
Minimum temperature yesterday: 43 °F (at 3:55 AM)
Average temperature yesterday: 46 °F

Past Weeks' High & Low Weather Summary

 TemperatureHumidityPressure
High81 °F (Sep 29, 12:45 PM)100% (Sep 26, 1:15 AM)30.37 "Hg (Sep 26, 1:15 AM)
Low37 °F (Sep 22, 5:35 AM)33% (Sep 23, 4:45 PM)29.68 "Hg (Sep 21, 12:35 AM)
Average55 °F77%30.13 "Hg
* Reported Sep 16 2:15 AM — Oct 1 2:55 AM, Milwaukee, Weather by CustomWeather, © 2014

Note: Actual official high and low records may vary slightly from our data, if they occured in-between our weather recording intervals... More about our weather records

Advertising

Milwaukee weather history for previous 24 hours

 ConditionsComfort  
Time TempWeatherWind HumidityBarometerVisibility
2:55 AM
Oct 1
52 °FOvercast.No wind82%30.02 "Hg10 mi
2:35 AM52 °FOvercast.No wind82%30.02 "Hg10 mi
2:15 AM50 °FOvercast.No wind88%30.02 "Hg10 mi
1:55 AM50 °FOvercast.No wind88%30.02 "Hg10 mi
1:35 AM50 °FOvercast.No wind88%30.03 "Hg7 mi
1:15 AM50 °FOvercast.3 mph88%30.03 "Hg7 mi
12:55 AM48 °FOvercast.No wind94%30.03 "Hg7 mi
12:35 AM48 °FOvercast.No wind94%30.04 "Hg7 mi
12:15 AM48 °FOvercast.No wind94%30.04 "Hg7 mi
11:55 PM
Sep 30
48 °FMostly cloudy.3 mph87%30.05 "Hg7 mi
11:15 PM46 °FLow clouds.3 mph93%30.05 "Hg7 mi
10:55 PM46 °FLow clouds.No wind93%30.06 "Hg7 mi
10:35 PM46 °FDrizzle. Low clouds.3 mph93%30.06 "Hg5 mi
10:15 PM46 °FLight rain. Low clouds.5 mph93%30.06 "Hg3 mi
9:55 PM46 °FFog.5 mph93%30.06 "Hg3 mi
9:35 PM46 °FDrizzle. Low clouds.5 mph93%30.06 "Hg3 mi
9:15 PM46 °FFog.6 mph93%30.06 "Hg3 mi
8:45 PM46 °FFog.No wind93%30.06 "Hg4 mi
7:45 PM48 °FFog.7 mph87%30.05 "Hg4 mi
5:45 PM52 °FOvercast.6 mph77%30.04 "Hg10 mi
4:45 PM52 °FOvercast.10 mph82%30.04 "Hg10 mi
3:45 PM54 °FScattered clouds.10 mph63%30.04 "Hg10 mi
2:45 PM54 °FScattered clouds.8 mph63%30.06 "Hg10 mi
1:45 PM55 °FPartly sunny.8 mph63%30.06 "Hg10 mi
12:45 PM52 °FOvercast.6 mph67%30.08 "Hg10 mi
11:45 AM50 °FOvercast.5 mph67%30.09 "Hg10 mi
10:45 AM48 °FOvercast.10 mph71%30.08 "Hg10 mi
9:45 AM46 °FOvercast.10 mph76%30.09 "Hg10 mi
8:45 AM45 °FOvercast.9 mph76%30.08 "Hg10 mi
7:45 AM45 °FOvercast.9 mph76%30.09 "Hg10 mi
6:45 AM45 °FOvercast.10 mph76%30.09 "Hg10 mi
6:35 AM43 °FOvercast.10 mph81%30.09 "Hg10 mi
6:15 AM43 °FOvercast.8 mph81%30.09 "Hg10 mi
5:55 AM43 °FOvercast.8 mph81%30.09 "Hg10 mi
5:15 AM43 °FOvercast.12 mph76%30.09 "Hg10 mi
4:55 AM43 °FOvercast.10 mph81%30.09 "Hg10 mi
4:35 AM43 °FOvercast.12 mph81%30.09 "Hg10 mi
4:15 AM43 °FOvercast.10 mph76%30.09 "Hg10 mi
Weather by CustomWeather, © 2014

See weather overviewHow to use our weather pages